Rbgn^[z[y[W
メイン
   新天体発見情報
     Comet C/2024 G1 (Wierzchos)
投稿するにはまず登録を

フラット表示 前のトピック | 次のトピック
投稿者 スレッド
佐藤裕久
投稿日時: 2024-4-28 20:54
モデレータ
登録日: 2005-6-12
居住地: 日本
投稿: 2684
オンライン
Comet C/2024 G1 (Wierzchos)

Kacper W. Wierzchos (アリゾナ大学月惑星研究所; LPL)の通報によると、4月7日UT、共同プログ
ラムの一環として、Kitt Peakにある2.25-m "Bok" 反射望遠鏡で得た、モザイクCCD画像から彗星を
発見した。4枚の30-秒の露出で、拡散した6"のコマが見え、p.a.260-290°にわたって9"の広い尾が
ある。
小惑星センターのPCCP webpageに公表後、佐藤英貴氏(東京都文京区,4月8.4日UT、60-秒露出14枚
のスタック, 0.51-m f/6.8 アストログラフ, Utah Desert Remote 天文台, Beryl Junction 近郊,
ユタ州, 米国, 遠隔操作:強く集光した8" のコマが見えるが尾はなかった。4".9の円形範囲で測定
した光度は20.2等であった)らCCD位置観測者によって彗星状と観測された。

彗星機能の報告は次のとおり、

OC   Date        Reporter           Coma    Tail    PA          Exposures
U94  2024-04-08  H. Sato            8"                           14x60s
291  2024-04-09  C. Lejoly          5".4      6"    260-300
I52  2024-04-12  V. F. Carvajal     5".5
291  2024-04-12  R. A. Mastaler     2"

発見位置は次のとおり、

     2024 UT             R.A. (2000) Decl.       Mag.   Observer
     Apr.  7.47946   19 33 30.68   +61 20 39.2          Wierzchos
           7.48639   19 33 30.25   +61 20 44.5   20.6     "
           7.49326   19 33 29.84   +61 20 49.4   20.3     "
           7.50013   19 33 29.42   +61 20 54.5   20.2     "

MPCの楕円軌道要素、位置推算表は次のとおり、

Orbital elements:
    C/2024 G1 (Wierzchoś)                                                      
Epoch 2024 Mar. 31.0 TT = JDT 2460400.5                                         
T 2024 Oct. 21.37832 TT                                 Rudenko                 
q   3.9298290            (2000.0)            P               Q                  
z  +0.0070003      Peri.  128.29480     -0.49613306     -0.70561804             
 +/-0.0002915      Node    30.54282     -0.65818586     -0.07436631             
e   0.9724899      Incl.   95.40810     +0.56625380     -0.70467924             
From 39 observations 2024 Apr. 7-15, mean residual 0".5.                        
                                                                                
Ephemeris:
Date    TT    R. A. (2000) Decl.     Delta      r    Elong.  Phase   m1
2024 03 18    19 44 35.9 +57 29 40   4.4720  4.3408    76.0    12.9  19.6
...
2024 04 02    19 38 01.8 +60 15 40   4.3613  4.2891    79.3    13.2  19.5
...
2024 04 10    19 30 57.9 +61 50 52   4.3007  4.2627    81.1    13.4  19.5
...
2024 04 16    19 23 34.9 +63 02 51   4.2558  4.2435    82.5    13.6  19.4
2024 04 17    19 22 09.4 +63 14 45   4.2484  4.2403    82.8    13.6  19.4
2024 04 18    19 20 40.3 +63 26 36   4.2410  4.2372    83.0    13.6  19.4
...
2024 04 24    19 10 27.6 +64 36 04   4.1976  4.2186    84.3    13.7  19.4
...
2024 05 02    18 53 03.3 +66 01 05   4.1428  4.1946    86.0    13.9  19.3
...
2024 05 17    18 07 59.9 +67 53 47   4.0543  4.1521    88.5    14.1  19.2

(MPEC 2024-H10、CBET 5381)


フラット表示 前のトピック | 次のトピック

題名 投稿者 日時
 » Comet C/2024 G1 (Wierzchos) 佐藤裕久 2024-4-28 20:54

投稿するにはまず登録を
 
© 1999 Tsutomu Seki.